Location: Grange Verzio
(44.5000°N, 6.9833°E)
Time: 17:05:07
(UTC+00:00)

CSL-04 Debris - Pass Details

Date: 01 February 2023
Orbit: 826 x 845 km, 98.8° (Epoch: 30 March)

Event Time Altitude Azimuth Distance (km) Brightness Sun altitude
Exits shadow 19:12:46 81° 28° (NNE) 849 4.0 -27.3°
Drops below altitude 10° 19:17:58 10° 347° (NNW) 2,444 6.8 -28.2°
Sets 19:20:19 0° 347° (NNW) 3,380 7.5 -28.6°
